Wind_Speed
2 2 3 3 3 3 1 1 1 2 1 1 1 2 2 2 4 6 7 6 7 8 8 9 11 13 14 14 15 16 16 16 16
1 1 1 2 2 2 2 0 1 1 2 2 1 1 2 3 4 4 5 5 6 6 8 10 11 13 14 14 15 15 15 14 15
4 3 2 1 1 2 2 0 1 1 2 3 3 2 1 3 3 3 3 4 5 6 8 9 11 13 13 14 14 14 13 13 14
6 5 4 3 2 2 2 1 1 2 3 3 3 3 3 2 2 1 2 3 4 6 7 9 11 12 12 13 12 12 12 12 14
8 8 6 6 4 4 3 2 3 4 4 4 4 4 4 3 2 1 1 2 3 5 7 9 11 12 12 11 11 10 10 12 12
11 11 9 9 8 6 5 4 4 5 5 5 6 6 5 4 3 2 1 1 2 4 7 9 11 11 11 11 10 7 9 12 13
14 13 12 12 11 10 8 6 6 7 7 7 7 7 7 5 5 4 3 2 2 4 7 9 10 11 11 9 7 5 8 9 12
18 17 17 14 14 13 11 9 8 8 9 9 9 9 9 8 7 6 5 4 4 5 8 9 10 11 11 9 7 5 7 9 10
22 21 20 17 16 15 13 12 11 10 10 11 11 12 12 11 9 8 7 6 6 7 8 10 10 10 10 9 7 7 7 10 11
26 25 23 21 19 18 15 14 14 12 12 13 13 13 13 13 12 10 10 8 7 7 9 10 10 10 9 9 9 9 9 11 12
29 28 26 24 22 20 18 17 17 15 15 15 15 16 16 16 15 14 13 11 9 8 10 10 10 10 9 10 11 12 12 13 14
32 31 29 27 24 22 22 20 20 20 18 17 18 18 18 18 17 16 15 14 12 10 10 10 11 11 11 10 13 15 17 16 15
35 34 30 31 28 25 24 23 22 22 21 21 20 21 20 20 20 19 18 16 14 13 12 12 11 13 12 11 12 14 15 15 14
36 36 34 32 30 29 27 26 25 25 24 24 23 23 23 22 22 21 21 18 16 14 13 14 13 14 13 12 13 14 14 15 14
39 38 37 37 36 33 32 30 29 28 27 26 27 26 26 25 24 23 23 20 18 16 15 15 15 16 14 13 14 14 14 15 15
43 40 39 39 40 37 35 34 32 30 30 30 31 30 28 27 26 25 25 23 20 19 17 16 17 16 16 15 14 14 14 14 14
48 46 43 40 41 40 40 39 37 35 34 33 32 33 33 30 28 27 26 25 23 22 20 19 18 18 16 15 16 16 16 15 15
53 50 48 44 41 43 43 42 38 39 36 34 35 35 36 33 31 29 28 27 26 24 24 22 21 20 19 17 18 17 15 15 15
59 57 53 48 44 45 44 41 39 43 40 38 36 37 38 37 37 30 28 29 28 28 27 26 25 23 21 20 19 17 14 13 13
64 62 59 55 50 46 45 44 41 43 43 42 39 39 40 38 37 39 32 30 29 30 30 29 29 25 25 24 21 19 15 14 12
Wind_Direction
105 83 80 90 78 68 59 224 226 187 241 293 203 120 69 77 106 92 79 67 57 46 37 32 34 38 41 38 36 32 31 31 30
179 190 80 77 29 29 47 351 178 236 182 171 166 146 138 139 112 94 77 58 49 36 35 39 39 36 32 33 32 29 32 36 36
214 223 250 296 358 355 1 36 181 194 192 171 171 185 196 156 136 109 65 33 41 45 43 39 33 29 26 30 28 29 35 39 43
220 221 234 246 282 301 321 289 192 183 189 206 197 188 193 202 150 84 55 39 42 42 38 29 28 22 22 22 27 34 39 39 38
225 225 231 241 247 273 289 276 223 201 199 207 217 210 200 202 203 290 7 36 48 41 27 21 16 15 17 20 27 38 39 33 30
232 231 236 243 248 247 262 268 251 223 212 213 210 218 217 224 234 249 292 334 11 21 16 13 11 13 14 14 24 34 30 34 29
240 238 239 246 254 253 252 256 251 246 232 213 217 216 221 232 256 266 249 267 330 358 4 3 8 5 3 3 11 21 17 14 10
236 239 245 253 262 268 266 265 262 254 247 233 220 222 225 229 239 256 263 276 310 338 347 351 355 353 350 352 1 2 3 3 4
242 240 245 250 255 260 262 263 263 259 252 247 236 230 233 239 243 243 248 270 296 320 333 338 341 341 339 338 348 344 335 345 346
243 243 245 247 249 255 256 258 258 260 256 250 247 244 243 246 247 243 244 255 277 304 320 326 330 328 330 323 325 329 327 330 334
241 245 246 244 246 247 249 253 256 254 254 253 251 247 248 250 252 255 253 254 269 291 309 321 325 325 321 315 313 316 319 320 319
243 246 246 247 244 244 246 247 250 253 251 249 250 249 250 253 256 257 257 262 272 283 297 311 316 317 313 311 309 309 310 311 314
241 243 244 245 245 243 246 247 247 251 254 256 253 249 249 250 253 256 257 257 263 279 292 301 306 311 307 305 306 309 310 313 312
242 242 244 243 244 245 246 245 245 247 251 253 255 254 254 253 254 255 255 258 265 275 286 297 301 306 301 300 305 311 311 313 312
242 243 242 242 243 244 248 247 246 246 248 250 254 256 255 252 253 255 258 255 258 268 279 289 295 303 300 296 302 308 313 315 315
243 245 245 241 243 245 249 249 246 244 247 248 251 255 258 260 258 255 256 257 257 263 270 280 288 296 294 293 296 303 306 309 310
243 244 244 244 245 245 243 246 248 248 245 248 252 254 257 258 260 261 258 258 256 259 264 272 281 286 286 288 295 300 304 308 309
242 243 242 242 244 246 245 245 250 254 249 247 251 254 259 263 260 262 260 259 257 259 262 266 272 276 278 282 289 293 299 305 313
241 241 242 241 242 243 245 245 247 251 249 247 246 252 255 258 265 263 259 258 257 259 261 264 268 273 274 274 281 282 287 299 312
240 241 242 242 240 240 240 243 244 245 248 251 249 248 253 257 258 263 261 259 259 260 262 262 263 264 269 269 272 271 272 287 296
Height
3174 3175 3174 3175 3174 3173 3173 3173 3173 3173 3174 3175 3175 3176 3176 3176 3175 3175 3175 3175 3174 3173 3172 3172 3171 3171 3170 3169 3168 3167 3165 3163 3161
3175 3175 3175 3175 3175 3174 3173 3173 3173 3174 3174 3175 3176 3176 3176 3176 3177 3176 3176 3176 3175 3174 3174 3174 3173 3173 3172 3170 3169 3167 3166 3164 3163
3175 3175 3176 3176 3175 3175 3174 3174 3174 3175 3175 3175 3176 3177 3177 3177 3177 3177 3178 3177 3176 3175 3175 3175 3174 3174 3173 3171 3170 3168 3167 3165 3164
3175 3175 3175 3175 3176 3175 3175 3174 3174 3175 3175 3176 3177 3177 3177 3178 3178 3178 3178 3177 3177 3177 3177 3176 3176 3174 3173 3172 3171 3169 3168 3166 3165
3174 3174 3175 3174 3175 3175 3175 3174 3174 3174 3175 3176 3177 3177 3177 3178 3178 3179 3178 3178 3178 3178 3177 3177 3177 3175 3173 3172 3171 3170 3169 3168 3166
3172 3173 3174 3174 3174 3173 3174 3174 3174 3174 3174 3175 3176 3177 3178 3178 3179 3179 3179 3179 3179 3178 3178 3178 3177 3175 3174 3173 3172 3171 3170 3170 3167
3170 3171 3172 3173 3173 3173 3173 3174 3174 3174 3175 3175 3176 3176 3177 3178 3179 3180 3179 3179 3179 3179 3178 3178 3177 3176 3174 3173 3172 3171 3171 3170 3168
3167 3168 3170 3172 3173 3173 3174 3174 3174 3174 3174 3175 3175 3176 3176 3177 3178 3179 3180 3180 3180 3179 3179 3178 3177 3176 3174 3173 3172 3171 3171 3170 3168
3165 3166 3168 3170 3171 3172 3172 3173 3173 3173 3174 3175 3175 3175 3176 3176 3177 3178 3178 3179 3180 3179 3178 3178 3177 3175 3174 3173 3172 3171 3170 3169 3168
3162 3163 3165 3167 3168 3169 3170 3171 3172 3172 3173 3173 3174 3175 3175 3175 3176 3177 3177 3177 3178 3178 3177 3177 3176 3175 3173 3172 3171 3170 3169 3168 3167
3159 3160 3162 3164 3165 3167 3168 3168 3169 3170 3171 3172 3173 3173 3174 3174 3175 3176 3176 3176 3177 3177 3177 3176 3175 3173 3173 3171 3170 3169 3167 3167 3165
3155 3156 3158 3159 3161 3163 3164 3165 3166 3167 3168 3169 3170 3170 3172 3173 3173 3174 3175 3176 3176 3176 3175 3174 3173 3172 3171 3170 3169 3167 3166 3165 3164
3150 3152 3154 3155 3157 3159 3160 3162 3163 3164 3165 3167 3167 3167 3168 3169 3170 3171 3172 3173 3174 3175 3174 3173 3171 3170 3170 3169 3168 3166 3165 3163 3161
3144 3146 3149 3150 3152 3154 3156 3157 3159 3160 3161 3163 3163 3164 3165 3166 3167 3168 3169 3170 3172 3172 3173 3172 3171 3169 3168 3167 3166 3164 3163 3161 3160
3136 3140 3143 3145 3146 3149 3151 3153 3154 3156 3157 3158 3159 3160 3161 3162 3163 3165 3166 3167 3169 3170 3170 3170 3169 3168 3166 3165 3164 3163 3161 3159 3158
3129 3133 3136 3139 3140 3144 3145 3147 3149 3151 3152 3154 3154 3156 3157 3159 3160 3161 3162 3164 3166 3167 3167 3167 3166 3166 3164 3163 3162 3161 3159 3157 3155
3121 3124 3128 3131 3134 3137 3138 3140 3143 3146 3147 3149 3150 3150 3152 3153 3155 3157 3158 3160 3161 3162 3163 3163 3163 3162 3162 3161 3160 3159 3157 3155 3154
3111 3115 3119 3124 3126 3128 3131 3134 3137 3140 3141 3144 3145 3145 3145 3148 3150 3151 3153 3155 3156 3157 3158 3158 3158 3159 3159 3159 3158 3156 3155 3153 3152
3100 3105 3109 3114 3117 3120 3123 3127 3129 3132 3134 3136 3138 3139 3140 3141 3143 3146 3148 3149 3150 3151 3152 3153 3154 3155 3154 3154 3154 3153 3151 3150 3149
3088 3094 3099 3102 3107 3111 3114 3117 3120 3123 3126 3128 3131 3133 3134 3136 3138 3137 3142 3144 3145 3146 3146 3147 3147 3148 3149 3149 3149 3148 3147 3147 3145